sat.trackr.live / text

‹ back to catalog

STARLINK-35377

NORAD 66185 · 2025-243J

PAYLOAD ACTIVE UNKNOWN

§ Identity

Operator
Country
US
Launch date
2025-10-26
Launch site
AFETR
Launch vehicle
Mass (kg)
RCS (m²)

Purposes: comms

External: N2YO · Heavens-Above · Gunter

§ Orbital elements

Epoch: 2026-09-20T13:56:03.183360Z

Period
93.85 min
Inclination
53.1592°
Eccentricity
0.0000963
Mean motion
15.34417533 rev/d
Perigee alt
462.0 km
Apogee alt
463.3 km
Semi-major
6,840.8 km
B*
6.3757e-4
RAAN
57.0869°
Arg perigee
27.7041°
Mean anomaly
332.4013°
Rev number
5,053

§ Raw data

STARLINK-353771 66185U 25243J   26263.58059240  .00021238  00000+0  63757-3 0  99902 66185  53.1592  57.0869 0000963  27.7041 332.4013 15.34417533 50532

JSON: /api/v1/satellites/66185 · /tle

For live sub-satellite position, see the globe view (requires WebGL).

§ Visibility from observer

Set your observer location to see the next 7 days of passes ≥ 10°. The values pass through the URL so the page stays shareable.

No JS? Fill the form by hand. The geolocation button needs JavaScript.